| time (UTC) | temp F | wind direction | speed MPH | gust MPH | rain 1hr in | rain 24hr in | rain mn in | humidity % | barometer mb |
| 20260901150011 | 60 | 282 | 4.0 | 9.0 | 0.00 | 0.03 | 0.00 | 82 | 1010.9 |
| 20260901145011 | 60 | 273 | 4.0 | 8.0 | 0.00 | 0.03 | 0.00 | 81 | 1010.9 |
| 20260901144011 | 60 | 276 | 5.0 | 12.0 | 0.00 | 0.03 | 0.00 | 79 | 1010.9 |
| 20260901143011 | 60 | 268 | 7.0 | 13.0 | 0.00 | 0.03 | 0.00 | 78 | 1011.0 |
| 20260901141011 | 61 | 294 | 8.0 | 14.0 | 0.00 | 0.03 | 0.00 | 75 | 1011.0 |
| 20260901140011 | 61 | 297 | 6.0 | 10.0 | 0.00 | 0.03 | 0.00 | 75 | 1011.0 |
| 20260901135011 | 61 | 289 | 5.0 | 12.0 | 0.00 | 0.03 | 0.03 | 75 | 1011.0 |
| 20260901134012 | 61 | 296 | 6.0 | 12.0 | 0.00 | 0.03 | 0.03 | 75 | 1011.0 |
| 20260901131011 | 61 | 309 | 9.0 | 14.0 | 0.01 | 0.03 | 0.03 | 76 | 1010.9 |
| 20260901130011 | 61 | 320 | 6.0 | 15.0 | 0.01 | 0.03 | 0.03 | 77 | 1010.9 |
| 20260901124011 | 60 | 310 | 6.0 | 14.0 | 0.01 | 0.03 | 0.03 | 78 | 1010.9 |
| 20260901123011 | 60 | 298 | 5.0 | 10.0 | 0.01 | 0.02 | 0.02 | 77 | 1011.1 |
| 20260901122011 | 61 | 308 | 4.0 | 12.0 | 0.01 | 0.02 | 0.02 | 77 | 1010.9 |
| 20260901121011 | 61 | 335 | 5.0 | 9.0 | 0.01 | 0.02 | 0.02 | 76 | 1011.0 |
| 20260901115012 | 61 | 349 | 4.0 | 9.0 | 0.01 | 0.02 | 0.02 | 75 | 1010.8 |
| 20260901114015 | 61 | 301 | 3.0 | 9.0 | 0.01 | 0.02 | 0.02 | 73 | 1011.1 |
| 20260901113011 | 62 | 316 | 6.0 | 12.0 | 0.00 | 0.01 | 0.01 | 72 | 1011.2 |
| 20260901112012 | 62 | 333 | 4.0 | 12.0 | 0.00 | 0.01 | 0.01 | 71 | 1011.1 |
| 20260901111012 | 62 | 312 | 5.0 | 12.0 | 0.00 | 0.01 | 0.01 | 69 | 1010.9 |
| 20260901110012 | 63 | 321 | 6.0 | 17.0 | 0.01 | 0.01 | 0.01 | 68 | 1010.8 |
| 20260901105011 | 63 | 316 | 3.0 | 12.0 | 0.01 | 0.01 | 0.01 | 67 | 1010.9 |
| 20260901104014 | 63 | 329 | 4.0 | 12.0 | 0.01 | 0.01 | 0.01 | 65 | 1010.8 |
| 20260901103010 | 63 | 328 | 6.0 | 13.0 | 0.01 | 0.01 | 0.01 | 67 | 1010.7 |
| 20260901102013 | 63 | 295 | 5.0 | 12.0 | 0.01 | 0.01 | 0.01 | 68 | 1010.8 |
| 20260901091010 | 65 | 352 | 3.0 | 10.0 | 0.00 | 0.00 | 0.00 | 58 | 1010.8 |
| 20260901090010 | 65 | 329 | 3.0 | 12.0 | 0.00 | 0.00 | 0.00 | 57 | 1011.1 |
| 20260901085011 | 65 | 315 | 5.0 | 12.0 | 0.00 | 0.00 | 0.00 | 57 | 1011.2 |
| 20260901084010 | 65 | 336 | 3.0 | 12.0 | 0.00 | 0.00 | 0.00 | 57 | 1011.3 |
| 20260901083011 | 65 | 346 | 5.0 | 12.0 | 0.00 | 0.00 | 0.00 | 57 | 1011.5 |
| 20260901082010 | 65 | 327 | 3.0 | 10.0 | 0.00 | 0.00 | 0.00 | 57 | 1011.6 |
| 20260901081011 | 65 | 349 | 5.0 | 12.0 | 0.00 | 0.00 | 0.00 | 56 | 1011.6 |
| 20260901080011 | 65 | 349 | 7.0 | 14.0 | 0.00 | 0.00 | 0.00 | 56 | 1011.8 |
| 20260901074011 | 66 | 324 | 6.0 | 12.0 | 0.00 | 0.00 | 0.00 | 55 | 1011.9 |
| 20260901071011 | 67 | 321 | 5.0 | 13.0 | 0.00 | 0.00 | 0.00 | 53 | 1011.9 |
| 20260901070011 | 67 | 314 | 8.0 | 16.0 | 0.00 | 0.00 | 0.00 | 52 | 1011.9 |
| 20260901065011 | 67 | 331 | 7.0 | 16.0 | 0.00 | 0.00 | 0.00 | 53 | 1011.8 |
| 20260901064011 | 68 | 312 | 7.0 | 15.0 | 0.00 | 0.00 | 0.00 | 53 | 1011.9 |
| 20260901063011 | 68 | 323 | 6.0 | 20.0 | 0.00 | 0.00 | 0.00 | 51 | 1011.8 |
| 20260901062010 | 68 | 304 | 12.0 | 20.0 | 0.00 | 0.00 | 0.00 | 50 | 1011.8 |
| 20260901061011 | 68 | 315 | 7.0 | 20.0 | 0.00 | 0.00 | 0.00 | 51 | 1011.8 |
| 20260901055011 | 69 | 300 | 6.0 | 18.0 | 0.00 | 0.00 | 0.00 | 51 | 1011.7 |
| 20260901054011 | 69 | 308 | 5.0 | 15.0 | 0.00 | 0.00 | 0.00 | 52 | 1011.7 |
| 20260901050011 | 70 | 331 | 12.0 | 22.0 | 0.00 | 0.00 | 0.00 | 48 | 1011.7 |
| 20260901045011 | 70 | 317 | 12.0 | 25.0 | 0.00 | 0.00 | 0.00 | 48 | 1011.7 |
| 20260901044012 | 70 | 315 | 10.0 | 23.0 | 0.00 | 0.00 | 0.00 | 49 | 1012.0 |
| 20260901043011 | 70 | 325 | 10.0 | 25.0 | 0.00 | 0.00 | 0.00 | 49 | 1012.1 |
| 20260901041010 | 71 | 326 | 11.0 | 21.0 | 0.00 | 0.00 | 0.00 | 48 | 1012.3 |
| 20260901040012 | 70 | 317 | 10.0 | 29.0 | 0.00 | 0.00 | 0.00 | 48 | 1012.6 |
| 20260901035011 | 70 | 305 | 13.0 | 29.0 | 0.00 | 0.00 | 0.00 | 47 | 1013.0 |
| 20260901034010 | 71 | 301 | 14.0 | 29.0 | 0.00 | 0.00 | 0.00 | 46 | 1013.2 |
| 20260901033011 | 71 | 315 | 12.0 | 26.0 | 0.00 | 0.00 | 0.00 | 47 | 1013.4 |
| 20260901032011 | 71 | 299 | 17.0 | 26.0 | 0.00 | 0.00 | 0.00 | 45 | 1013.6 |
| 20260901031011 | 71 | 298 | 13.0 | 29.0 | 0.00 | 0.00 | 0.00 | 45 | 1013.8 |
| 20260901030010 | 71 | 298 | 14.0 | 29.0 | 0.00 | 0.00 | 0.00 | 45 | 1013.9 |
| 20260901025011 | 71 | 303 | 12.0 | 24.0 | 0.00 | 0.00 | 0.00 | 46 | 1014.2 |
| 20260901024011 | 71 | 305 | 14.0 | 26.0 | 0.00 | 0.00 | 0.00 | 45 | 1014.3 |
| 20260901023011 | 71 | 323 | 13.0 | 26.0 | 0.00 | 0.00 | 0.00 | 46 | 1014.6 |
| 20260901022011 | 70 | 322 | 12.0 | 22.0 | 0.00 | 0.00 | 0.00 | 48 | 1014.8 |